Temperature
22 23 23 23 23 23 23 23 23 23 23 22 22 22 22 22 21 21 20 20 20 19 18 17 17 17 17 16 16 16 16 16 16 15 15 15 15 15 14 14 14 14 14 14
23 22 23 23 22 22 22 23 23 23 22 22 22 22 23 22 21 20 20 20 19 19 18 17 17 17 17 16 16 16 16 16 16 15 15 15 15 15 14 14 14 14 14 14
22 22 22 22 22 22 22 22 23 22 22 22 22 22 22 22 20 20 19 19 19 18 18 17 17 17 17 16 16 16 16 16 15 15 15 15 15 15 14 14 14 14 14 14
22 22 21 22 22 22 22 22 22 22 22 22 22 22 23 22 21 21 20 19 19 18 17 17 17 17 16 16 16 16 16 16 15 15 15 15 15 14 14 14 14 14 14 14
21 21 21 21 22 22 22 21 22 22 22 22 22 22 23 22 22 21 21 19 18 18 17 17 17 16 16 16 16 16 16 16 15 15 15 15 14 14 14 14 14 14 14 14
21 21 21 21 21 21 21 21 21 22 22 21 22 22 22 22 22 21 21 19 18 17 17 16 16 16 16 16 16 16 16 15 15 15 15 15 15 14 14 14 14 14 14 14
21 21 21 21 21 21 21 22 21 21 21 22 22 21 22 22 21 21 20 19 18 17 17 16 16 16 16 16 16 16 15 15 15 15 15 14 14 14 14 14 14 14 14 13
20 20 21 21 21 21 21 22 21 21 21 22 21 21 22 21 20 19 19 19 18 17 17 16 16 16 16 16 16 15 15 15 15 15 14 14 14 14 14 14 14 14 13 13
20 20 20 20 20 21 21 21 22 21 21 21 22 21 21 20 20 19 19 18 18 17 16 16 15 15 16 15 15 15 15 15 15 14 14 14 14 14 14 14 14 14 13 13
20 20 20 20 20 20 21 21 21 21 20 20 21 21 21 20 20 20 19 19 18 17 16 16 15 15 15 15 15 15 15 15 15 14 14 14 14 14 14 13 13 13 13 13
19 19 19 20 20 20 20 20 20 21 21 20 20 21 21 21 20 20 20 19 18 17 16 16 15 15 15 15 15 15 15 15 14 14 14 14 13 13 13 13 13 13 13 13
19 19 19 20 20 19 20 20 20 20 20 20 20 21 21 20 20 19 19 18 17 17 16 16 15 15 15 15 15 14 14 14 14 14 14 13 13 13 13 13 12 12 12 12
18 19 19 19 19 19 19 19 19 20 20 20 20 20 20 20 19 19 18 18 17 16 16 15 15 15 15 15 14 14 14 13 13 13 13 13 13 13 13 12 12 12 12 12
17 19 19 19 19 19 19 18 19 19 19 19 20 20 20 20 19 19 18 17 17 16 15 15 15 14 14 14 14 14 14 13 13 13 13 13 12 12 12 12 12 12 11 11
18 18 19 19 19 19 18 18 18 19 19 19 20 20 20 20 19 18 17 16 16 16 15 15 14 14 14 14 14 13 13 13 13 13 13 12 12 12 12 12 11 11 11 11
18 18 18 18 18 18 18 18 18 18 18 19 19 19 20 19 18 18 17 16 16 15 15 15 14 14 14 14 13 13 13 13 13 12 12 12 12 11 11 11 11 11 11 11
17 18 17 18 18 17 18 18 18 18 18 18 18 19 19 18 18 17 16 16 15 15 15 14 14 14 14 13 13 13 13 13 12 12 12 12 11 11 11 11 11 11 10 10
17 17 17 17 17 17 19 18 18 18 18 18 18 19 18 18 17 16 16 15 15 15 14 14 14 14 13 13 13 13 12 12 12 12 11 11 11 11 11 10 10 10 10 10
16 17 17 17 17 18 18 17 17 17 18 18 18 18 17 16 16 16 15 15 14 14 14 14 13 13 13 13 12 12 12 12 12 11 11 11 11 10 10 10 10 10 10 9
15 16 17 16 16 17 18 17 16 17 17 18 17 17 16 16 17 17 15 14 14 14 13 13 13 13 13 12 12 12 12 12 11 11 11 10 10 10 10 9 9 9 9 9
15 16 16 16 16 17 17 16 16 16 18 17 16 16 15 16 17 15 14 14 13 13 13 13 13 13 12 12 12 12 11 11 11 11 10 10 10 9 9 9 9 9 9 9
16 15 15 16 15 16 16 16 16 17 17 16 15 15 15 15 14 14 14 13 13 13 12 12 12 12 12 12 11 11 11 11 10 10 10 10 9 9 9 9 8 8 8 8
15 16 16 16 16 16 15 15 15 15 15 15 14 14 14 13 13 13 13 12 12 12 12 12 12 12 11 11 11 11 10 10 10 9 9 9 9 9 8 8 8 8 8 7
15 14 15 15 16 15 14 14 14 14 14 14 14 13 13 13 13 13 12 12 12 12 12 12 11 11 11 11 11 10 10 10 9 9 9 9 8 8 8 8 8 7 7 7
14 14 14 15 15 14 14 13 13 13 13 13 13 13 13 13 12 12 12 12 12 12 11 11 11 11 11 10 10 10 10 9 9 9 8 8 8 8 8 8 7 7 7 7
13 13 14 14 15 14 14 13 13 13 13 13 12 12 12 12 12 12 12 11 11 11 11 11 11 10 10 10 10 9 9 9 9 8 8 8 8 7 7 7 7 7 7 6
Wind_Speed
3 5 6 6 5 3 4 5 5 3 3 5 6 5 4 4 5 5 5 5 5 5 5 5 5 6 6 6 6 6 5 5 4 3 2 2 2 1 1 1 1 1 0 0
5 5 3 3 3 4 6 7 5 3 3 5 5 6 5 4 5 4 4 4 4 4 5 5 6 6 7 7 7 6 6 5 5 3 3 2 2 1 1 1 1 1 1 0
6 2 2 4 5 5 6 7 5 4 3 5 5 7 7 5 4 3 3 3 3 4 4 5 5 6 7 7 7 6 6 6 5 5 3 3 2 2 2 2 2 1 1 1
4 2 4 5 5 6 6 4 5 5 6 4 5 5 6 7 5 5 5 4 4 3 4 4 5 5 6 6 6 6 6 6 6 6 5 5 4 3 2 2 2 2 2 1
4 4 4 5 4 5 3 1 4 6 7 7 7 7 4 6 6 6 5 4 3 3 3 4 5 5 5 5 6 6 6 6 6 6 6 5 4 3 2 2 2 2 2 2
3 2 3 3 1 3 3 3 3 5 6 8 7 8 4 4 5 4 4 4 3 3 2 3 3 4 4 4 5 6 6 6 6 6 6 6 5 4 3 3 2 2 2 2
4 4 2 2 3 4 5 5 4 5 6 5 3 6 4 1 1 3 4 4 4 4 3 3 3 3 3 4 4 5 6 6 6 6 6 6 6 5 5 4 3 3 2 2
5 6 4 3 4 4 6 7 5 4 5 4 4 6 2 2 0 1 2 4 4 4 3 3 3 3 3 3 3 5 6 6 6 6 6 6 6 5 4 4 3 3 3 2
4 4 2 1 2 4 5 6 4 5 5 6 5 4 3 2 2 2 3 4 4 4 4 3 3 2 2 2 3 4 6 6 6 6 6 5 5 5 4 4 4 3 2 2
2 4 3 2 3 1 3 4 4 6 5 6 5 6 4 4 4 4 4 4 4 3 4 3 3 2 2 2 3 3 3 5 5 5 5 4 5 5 4 4 4 3 3 2
3 4 4 4 6 5 4 5 6 6 6 5 5 3 1 2 3 4 4 4 4 4 4 3 3 3 3 2 2 3 3 3 4 4 4 4 4 4 4 4 4 3 3 3
3 4 5 5 2 3 6 6 7 7 6 6 6 3 2 2 3 3 4 3 3 4 4 4 3 3 3 3 3 2 3 3 2 3 4 3 3 4 4 4 4 3 3 3
3 5 5 5 5 4 5 5 6 7 6 7 8 4 3 0 2 2 3 3 3 3 4 4 4 4 4 4 3 3 3 2 2 2 3 4 3 3 4 4 4 4 3 3
4 6 8 8 5 5 7 8 8 9 8 9 11 10 5 4 5 4 4 4 4 4 4 4 4 4 4 4 4 4 3 3 2 2 2 2 3 3 3 3 3 3 3 4
4 7 8 9 7 7 10 10 11 13 12 12 12 12 10 7 6 6 5 5 4 4 4 4 4 4 4 4 4 4 4 3 3 2 2 1 2 3 3 3 3 3 3 4
4 6 7 9 7 8 11 11 11 12 12 13 13 13 8 7 6 6 5 5 5 5 5 4 4 4 4 4 4 4 4 4 4 3 2 2 2 2 2 2 3 3 3 3
5 6 6 7 6 8 10 10 10 9 10 10 11 9 6 6 6 6 5 6 6 5 5 5 5 4 4 4 4 4 3 4 4 3 3 2 2 2 2 2 3 3 4 3
7 7 6 6 6 9 4 2 6 9 10 10 10 8 7 7 6 6 5 6 6 5 5 5 4 4 3 3 3 3 3 3 3 3 3 3 2 2 2 2 2 3 3 3
7 7 5 6 8 9 4 3 5 7 10 9 10 9 8 5 5 5 4 5 6 5 5 4 4 3 3 3 3 3 3 3 3 3 3 3 3 2 2 2 2 3 2 3
5 7 7 7 8 8 3 1 2 5 8 5 7 8 6 4 7 5 3 4 5 4 3 3 3 3 3 3 3 4 4 4 4 3 3 3 3 3 3 3 3 2 3 3
5 6 8 9 9 7 2 0 3 6 4 3 5 6 7 7 7 5 3 4 4 4 3 3 3 3 3 3 4 4 3 3 3 3 3 3 3 3 3 3 3 3 3 3
6 6 7 7 8 6 1 2 4 6 6 5 5 6 6 7 6 4 3 3 3 3 3 3 3 3 3 4 4 4 3 2 2 2 3 3 3 3 3 3 3 3 3 3
6 6 5 6 6 4 4 6 7 7 7 6 5 5 5 6 6 5 4 3 3 3 3 3 4 4 3 3 4 4 2 2 2 3 3 3 3 3 3 3 3 3 3 3
5 5 6 8 9 8 8 8 8 8 8 8 7 6 6 6 6 5 4 4 4 4 4 4 5 4 4 4 4 3 3 3 3 3 3 3 3 3 3 3 3 3 4 3
6 4 7 10 9 8 7 7 8 7 7 7 6 5 6 6 6 5 5 5 4 4 4 5 5 5 4 4 3 3 3 4 4 4 4 3 3 3 3 3 3 4 4 3
5 6 7 8 8 8 8 7 6 6 6 6 5 5 5 6 6 5 5 5 5 4 4 5 5 5 4 4 4 3 4 4 4 4 4 3 3 3 3 4 3 3 4 4
Wind_Direction
182 203 206 204 219 251 231 227 230 231 221 229 235 236 230 208 205 208 208 210 210 206 190 183 190 192 190 191 192 186 185 182 176 173 177 179 178 172 151 109 102 99 8 130
190 209 209 196 203 221 228 232 234 229 212 236 240 242 228 204 203 213 218 215 213 201 189 186 192 193 198 196 198 192 191 188 185 184 187 191 191 199 189 171 169 190 199 241
209 173 166 186 191 216 230 238 238 240 230 223 243 237 213 194 193 203 221 223 213 208 205 195 196 196 198 200 198 199 195 192 189 184 183 184 175 185 180 186 191 211 228 231
207 181 184 202 212 234 238 239 234 229 236 237 241 257 213 195 199 208 213 216 217 213 211 199 198 201 202 203 200 201 198 198 194 189 193 196 199 204 211 201 196 198 204 222
197 190 203 220 227 237 246 221 222 234 249 254 238 256 227 192 214 215 212 213 208 204 207 202 202 204 203 198 196 200 197 197 197 197 196 206 212 217 209 204 205 204 192 211
204 195 223 228 221 209 175 186 200 226 245 248 238 245 245 202 221 215 202 197 189 181 182 182 190 194 196 191 192 195 197 196 195 199 202 206 211 211 207 208 207 208 195 209
201 192 185 189 187 173 200 216 226 225 225 240 210 241 247 134 204 224 210 193 180 166 164 159 165 183 195 193 194 197 197 196 193 199 206 208 213 213 214 213 208 210 206 209
211 200 182 195 225 215 212 227 244 254 251 250 221 240 205 123 156 227 209 187 178 168 166 162 166 182 191 193 197 201 197 196 194 200 206 209 210 216 221 220 215 212 217 220
218 201 158 205 242 234 213 224 264 273 267 262 235 230 231 184 204 196 189 183 181 177 171 169 169 173 182 191 198 205 199 194 195 201 204 208 209 210 215 215 214 211 213 215
241 223 199 186 190 192 249 226 228 240 252 254 248 239 229 193 207 203 204 202 191 180 176 172 170 172 187 195 195 195 202 198 193 199 202 206 210 209 210 207 203 202 206 206
238 226 199 199 215 216 202 212 232 241 255 262 264 237 151 206 216 222 220 215 208 197 186 182 184 180 179 185 186 187 188 189 196 198 197 198 205 207 202 200 200 202 209 212
224 237 223 220 231 249 229 231 230 242 244 250 270 270 105 244 237 236 238 230 227 208 194 189 191 194 192 186 186 193 185 182 192 201 196 196 196 204 205 205 205 204 209 215
206 227 218 201 186 190 216 220 232 251 256 248 253 255 109 224 252 244 242 244 241 212 202 196 191 203 205 197 186 187 190 187 182 189 201 199 199 203 208 211 210 210 214 219
228 234 239 244 255 228 234 233 232 236 247 253 255 271 267 270 268 263 252 250 245 222 206 199 196 203 205 205 198 191 188 188 181 180 198 207 207 209 212 209 214 219 222 226
232 243 250 261 264 245 246 241 233 237 248 258 266 270 276 278 272 261 250 243 238 226 213 204 205 207 207 205 199 193 186 183 183 183 193 210 221 213 214 210 215 220 230 235
230 242 251 252 244 250 251 244 236 241 251 256 266 270 274 280 270 253 245 237 234 231 226 221 219 213 213 208 201 192 188 183 182 187 191 192 220 218 218 219 221 221 228 237
218 234 249 253 253 258 246 236 230 235 240 249 255 264 273 272 268 254 244 240 239 236 235 232 227 218 215 210 202 199 191 184 186 189 192 196 207 221 226 224 222 227 229 235
228 233 246 258 253 245 247 204 234 245 249 248 257 265 265 269 274 264 253 246 245 245 243 241 231 217 214 204 195 192 191 188 193 198 195 200 206 222 231 230 233 239 240 231
229 228 235 242 250 260 252 228 228 246 260 249 251 263 271 284 275 259 250 245 249 247 245 237 226 213 206 197 188 186 191 192 196 204 209 207 211 214 224 232 245 245 247 246
203 224 233 239 249 255 256 171 264 255 260 250 258 262 261 257 265 273 259 251 251 244 238 227 213 201 195 190 185 191 194 197 202 208 219 220 217 216 221 233 244 247 244 250
200 215 228 239 249 259 287 213 213 238 284 328 282 268 256 256 275 299 261 244 239 234 230 213 203 198 195 188 193 200 202 208 210 213 221 227 224 226 230 231 238 243 242 251
218 218 225 231 240 250 122 192 232 281 316 306 286 274 262 266 282 281 258 240 232 227 222 210 202 196 190 190 200 207 211 213 208 210 213 221 223 225 231 230 238 243 242 245
230 236 242 236 253 295 250 264 279 297 296 297 285 278 266 266 270 271 259 248 241 235 229 215 204 196 195 198 206 215 212 203 207 213 219 221 222 222 229 234 236 236 238 244
243 255 252 257 264 274 272 272 277 281 283 291 287 273 259 258 262 260 251 243 239 232 225 212 201 202 205 207 212 218 205 208 216 223 225 228 229 230 232 238 241 240 241 244
258 246 255 261 275 288 275 274 285 289 287 289 286 276 266 263 257 250 242 238 235 229 225 216 211 210 211 209 213 214 208 213 224 230 229 232 238 239 239 238 245 248 247 250
246 244 253 269 288 287 290 299 295 286 285 287 286 281 272 261 258 255 250 246 239 231 227 218 212 213 216 213 213 212 214 219 226 232 235 235 234 237 238 241 247 234 244 245
Height
1518 1517 1517 1517 1517 1517 1518 1520 1521 1520 1521 1523 1522 1523 1523 1525 1527 1528 1529 1531 1532 1533 1535 1536 1537 1538 1539 1540 1542 1542 1543 1543 1544 1544 1544 1544 1545 1545 1545 1545 1545 1545 1545 1545
1516 1517 1517 1517 1519 1519 1519 1520 1520 1520 1521 1522 1521 1521 1521 1523 1525 1527 1528 1529 1530 1532 1533 1534 1535 1537 1538 1539 1540 1541 1541 1542 1542 1543 1543 1544 1544 1544 1544 1544 1544 1545 1545 1545
1516 1517 1519 1519 1520 1520 1520 1520 1519 1521 1521 1520 1522 1521 1519 1521 1524 1526 1527 1528 1529 1530 1531 1532 1534 1535 1536 1537 1538 1539 1540 1541 1541 1541 1542 1543 1543 1543 1544 1543 1543 1544 1544 1543
1516 1518 1519 1519 1519 1519 1520 1518 1519 1521 1522 1520 1521 1522 1515 1517 1521 1523 1525 1526 1528 1529 1529 1530 1531 1533 1534 1534 1536 1537 1538 1539 1539 1540 1541 1541 1542 1542 1542 1543 1543 1543 1543 1543
1516 1518 1518 1519 1518 1518 1518 1519 1519 1520 1519 1520 1518 1520 1513 1514 1517 1519 1522 1524 1526 1527 1528 1528 1529 1530 1532 1533 1533 1535 1536 1537 1538 1538 1539 1540 1541 1541 1542 1542 1542 1542 1542 1542
1516 1518 1518 1517 1518 1519 1520 1520 1519 1518 1519 1525 1517 1519 1515 1511 1514 1516 1520 1523 1524 1526 1526 1526 1527 1528 1530 1530 1531 1532 1534 1535 1535 1536 1537 1538 1539 1539 1540 1540 1540 1541 1541 1540
1517 1517 1518 1519 1518 1519 1518 1520 1525 1526 1525 1520 1515 1518 1515 1511 1514 1516 1518 1520 1523 1524 1525 1525 1526 1527 1528 1528 1529 1530 1531 1532 1533 1534 1535 1536 1537 1538 1538 1539 1539 1539 1539 1539
1519 1519 1517 1517 1517 1517 1516 1517 1524 1528 1524 1517 1517 1516 1511 1513 1516 1517 1518 1519 1521 1522 1523 1524 1525 1525 1526 1527 1527 1528 1529 1530 1531 1532 1533 1534 1535 1536 1536 1537 1537 1538 1538 1537
1517 1518 1517 1518 1518 1516 1516 1516 1515 1518 1518 1521 1513 1512 1511 1512 1514 1516 1517 1518 1519 1521 1522 1523 1524 1524 1525 1525 1526 1527 1527 1528 1529 1530 1531 1532 1532 1533 1534 1535 1535 1535 1536 1536
1516 1520 1517 1519 1518 1518 1516 1515 1518 1519 1524 1523 1516 1513 1510 1510 1511 1513 1515 1516 1518 1519 1521 1522 1522 1523 1523 1524 1524 1525 1526 1527 1527 1528 1529 1529 1530 1531 1531 1532 1533 1533 1533 1534
1517 1518 1519 1517 1516 1516 1518 1518 1516 1516 1516 1520 1520 1513 1504 1507 1509 1511 1513 1515 1516 1518 1519 1520 1521 1521 1522 1522 1523 1523 1524 1524 1525 1526 1526 1527 1528 1528 1529 1530 1530 1531 1531 1531
1518 1517 1516 1515 1515 1516 1515 1515 1516 1520 1518 1516 1517 1513 1505 1507 1509 1511 1512 1514 1515 1516 1518 1519 1519 1520 1520 1521 1521 1522 1522 1522 1522 1523 1524 1525 1525 1526 1527 1527 1528 1528 1529 1529
1518 1517 1519 1517 1520 1518 1516 1515 1516 1516 1516 1516 1518 1513 1506 1507 1509 1510 1512 1513 1514 1515 1516 1517 1517 1518 1518 1519 1519 1520 1520 1520 1520 1521 1521 1522 1523 1523 1524 1525 1525 1526 1526 1526
1518 1514 1515 1517 1511 1512 1515 1516 1516 1516 1516 1513 1510 1506 1504 1506 1507 1509 1511 1512 1512 1513 1514 1515 1515 1516 1516 1517 1517 1517 1518 1519 1519 1519 1519 1519 1520 1520 1521 1522 1523 1523 1523 1524
1516 1513 1511 1510 1510 1511 1512 1513 1513 1513 1510 1510 1505 1505 1503 1504 1506 1508 1509 1510 1511 1511 1512 1512 1513 1513 1514 1514 1515 1515 1516 1516 1516 1517 1517 1517 1517 1518 1518 1519 1520 1520 1520 1521
1514 1513 1511 1511 1510 1510 1510 1508 1509 1509 1508 1506 1505 1504 1502 1504 1505 1506 1507 1508 1508 1509 1509 1510 1510 1511 1511 1512 1512 1513 1513 1514 1514 1514 1515 1514 1515 1515 1516 1516 1517 1517 1518 1518
1512 1511 1512 1508 1508 1509 1507 1503 1504 1505 1503 1504 1503 1501 1501 1502 1503 1503 1504 1505 1505 1506 1507 1508 1508 1508 1509 1510 1510 1510 1511 1511 1512 1512 1513 1513 1513 1513 1513 1513 1514 1515 1515 1515
1511 1510 1510 1508 1509 1512 1500 1498 1500 1500 1499 1500 1499 1498 1499 1500 1501 1501 1502 1502 1503 1504 1505 1505 1506 1506 1507 1507 1507 1508 1508 1509 1509 1510 1510 1510 1511 1510 1510 1511 1511 1512 1512 1512
1511 1509 1509 1509 1508 1501 1498 1499 1500 1500 1497 1497 1497 1497 1498 1499 1499 1498 1499 1500 1501 1501 1502 1502 1503 1503 1504 1505 1505 1506 1506 1507 1507 1508 1508 1508 1508 1508 1508 1508 1508 1509 1509 1509
1510 1509 1508 1509 1510 1506 1497 1498 1499 1500 1497 1494 1495 1495 1496 1497 1495 1494 1496 1497 1498 1499 1499 1500 1500 1501 1502 1502 1503 1503 1504 1505 1505 1505 1506 1506 1506 1505 1505 1505 1506 1505 1505 1505
1508 1507 1507 1506 1505 1497 1495 1498 1500 1502 1495 1494 1494 1494 1495 1494 1494 1494 1494 1494 1495 1496 1497 1497 1498 1498 1499 1500 1500 1501 1502 1502 1503 1503 1503 1503 1503 1503 1503 1503 1503 1503 1502 1502
1502 1504 1503 1503 1504 1500 1497 1497 1497 1494 1493 1493 1493 1493 1493 1493 1493 1492 1492 1492 1492 1493 1494 1494 1495 1496 1496 1497 1498 1498 1499 1499 1499 1499 1500 1500 1500 1500 1500 1500 1500 1500 1499 1499
1500 1499 1497 1498 1497 1494 1495 1495 1494 1494 1493 1492 1492 1491 1491 1491 1490 1490 1490 1490 1490 1490 1491 1492 1492 1493 1493 1494 1495 1496 1496 1496 1496 1496 1496 1497 1497 1497 1497 1497 1496 1496 1496 1496
1498 1499 1498 1495 1492 1493 1493 1492 1492 1492 1491 1490 1489 1489 1488 1488 1487 1487 1487 1488 1487 1488 1488 1489 1489 1490 1491 1491 1492 1492 1493 1493 1493 1494 1494 1494 1494 1494 1494 1493 1493 1493 1493 1492
1497 1498 1495 1492 1491 1491 1490 1490 1489 1489 1488 1487 1487 1486 1485 1485 1484 1484 1484 1484 1484 1485 1485 1486 1486 1487 1487 1488 1488 1489 1489 1490 1490 1491 1491 1491 1491 1490 1490 1490 1490 1490 1489 1489
1495 1495 1494 1490 1490 1490 1488 1487 1486 1485 1485 1484 1483 1482 1482 1482 1481 1481 1481 1481 1481 1481 1481 1482 1482 1483 1484 1485 1485 1485 1486 1486 1487 1487 1487 1487 1487 1487 1487 1486 1486 1486 1486 1485